{"data":{"norad_id":47907,"intl_designator":"2021-021AZ","name":"STARLINK-2367","alt_names":[],"object_type":"PAYLOAD","status":"ACTIVE","operator":null,"country":"US","launch_date":"2021-03-14","launch_site_code":"AFETR","launch_vehicle":null,"mission":null,"orbit_class":"UNKNOWN","rcs_meters":null,"size_class":null,"mass_kg":null,"dimensions":null,"purposes":["comms"],"wikipedia_slug":null,"has_3d_model":false,"image_url":null,"decayed_at":null,"tle_current":{"epoch":"2026-09-19T22:17:58.515936Z","epoch_age_seconds":78548,"freshness":"FRESH","line1":"1 47907U 21021AZ  26262.92914949  .00001007  00000+0  44218-4 0  9998","line2":"2 47907  53.1579  97.1691 0001350  93.1779 266.9377 15.31702369305787","mean_motion":15.31702369,"eccentricity":0.000135,"inclination_deg":53.1579,"raan_deg":97.1691,"arg_perigee_deg":93.1779,"mean_anomaly_deg":266.9377,"bstar":4.4218e-5,"rev_number":30578,"period_min":94.01304255605,"perigee_km":469.80833592802,"apogee_km":471.65753081003,"semimajor_km":6848.869933369,"source":"CELESTRAK","updated_at":"2026-09-20T09:00:38.757485Z"}}}